Weather History for Springfield, MO

Change the Weather History Date:

Friday, January 20, 2012

  Actual Average Record
Temperature  
Mean Temperature 31 °F 32 °F  
Max Temperature 38 °F 43 °F 70 °F (1906)
Min Temperature 24 °F 22 °F -13 °F (1985)
Degree Days  
Heating Degree Days 34 32  
Month to date heating degree days 559 655  
Since 1 July heating degree days 2236 2465  
Cooling Degree Days 0 0  
Month to date cooling degree days 0 0  
Year to date cooling degree days 0 0  
Moisture  
Dew Point 28 °F    
Average Humidity 88    
Maximum Humidity 100    
Minimum Humidity 75    
Precipitation  
Precipitation 0.00 in 0.07 in 1.57 in (1923)
Month to date precipitation 0.01 1.65  
Year to date precipitation 0.01 1.65  
Snow  
Snow 0.00 in - - ()
Month to date snowfall 0.7  
Since 1 July snowfall 1.1  
Snow Depth 0.00 in    
Sea Level Pressure  
Sea Level Pressure 29.88 in    
Wind  
Wind Speed 12 mph (East)    
Max Wind Speed 25 mph    
Max Gust Speed 31 mph    
Visibility 5 miles    
Events      
T = Trace of Precipitation, MM = Missing Value Source: NWS Daily Summary

Daily Weather History Graph

Daily Weather History Graph

Search for Another Location

Airport:

Trip Planner

Search our weather history database for the weather conditions in past years. The results will help you decide how hot, cold, wet, or windy it might be!

Date:

Astronomy

Jan. 20, 2012 Rise Set
Actual Time 7:24 AM CST 5:24 PM CST
Civil Twilight 6:56 AM CST 5:52 PM CST
Nautical Twilight 6:24 AM CST 6:24 PM CST
Astronomical Twilight 5:53 AM CST 6:55 PM CST
Moon 5:01 AM CST (1/20) 2:58 PM CST (1/20)
Length of Visible Light 10h 56m
Length of Day
9h 59m
Waning Crescent, 8% of the Moon is Illuminated
Jan 20
Waning Crescent
Jan 23
New
Jan 30
First Quarter
Feb 7
Full
Feb 14
Last Quarter

Hourly Weather History & Observations

Time (CST) Temp. Windchill Dew Point Humidity Pressure Visibility Wind Dir Wind Speed Gust Speed Precip Events Conditions
12:52 AM 25.0 °F 15.5 °F 19.0 °F 78% 29.98 in 10.0 mi East 9.2 mph - N/A   Clear
1:52 AM 26.1 °F 17.6 °F 21.0 °F 81% 29.94 in 10.0 mi East 8.1 mph - N/A   Clear
2:52 AM 27.0 °F 20.5 °F 21.9 °F 81% 29.91 in 10.0 mi East 5.8 mph - N/A   Clear
3:52 AM 27.0 °F 18.7 °F 21.9 °F 81% 29.88 in 10.0 mi East 8.1 mph - N/A   Clear
4:52 AM 27.0 °F 18.7 °F 23.0 °F 85% 29.88 in 10.0 mi ESE 8.1 mph - N/A   Clear
5:52 AM 28.0 °F 19.3 °F 24.1 °F 85% 29.88 in 10.0 mi ESE 9.2 mph - N/A   Clear
6:27 AM 28.4 °F 17.5 °F 24.8 °F 86% 29.85 in 10.0 mi SE 13.8 mph - N/A   Mostly Cloudy
6:37 AM 28.4 °F 17.0 °F 24.8 °F 86% 29.85 in 9.0 mi SE 15.0 mph - N/A   Overcast
6:52 AM 28.9 °F 19.8 °F 26.1 °F 89% 29.88 in 8.0 mi SE 10.4 mph 19.6 mph N/A   Overcast
7:52 AM 28.9 °F 16.1 °F 28.0 °F 96% 29.86 in 4.0 mi SE 19.6 mph 24.2 mph N/A   Overcast
8:15 AM 30.2 °F 17.8 °F 28.4 °F 93% 29.81 in 2.5 mi SE 19.6 mph - N/A   Overcast
8:52 AM 30.0 °F 17.2 °F 28.0 °F 92% 29.84 in 2.5 mi SSE 20.7 mph 27.6 mph N/A   Overcast
9:16 AM 30.2 °F 17.1 °F 28.4 °F 93% 29.81 in 1.5 mi SE 21.9 mph 28.8 mph N/A   Overcast
9:36 AM 30.2 °F 17.4 °F 28.4 °F 93% 29.81 in 3.0 mi SSE 20.7 mph 25.3 mph N/A   Overcast
9:52 AM 32.0 °F 20.1 °F 28.9 °F 88% 29.85 in 5.0 mi SSE 19.6 mph - N/A   Overcast
10:21 AM 33.8 °F 22.5 °F 30.2 °F 87% 29.80 in 5.0 mi SE 19.6 mph 24.2 mph N/A   Overcast
10:52 AM 34.0 °F 23.8 °F 30.9 °F 89% 29.83 in 6.0 mi SE 16.1 mph - N/A   Overcast
11:52 AM 36.0 °F 28.5 °F 32.0 °F 86% 29.80 in 6.0 mi SE 10.4 mph - N/A   Overcast
12:52 PM 36.0 °F 27.5 °F 33.1 °F 89% 29.76 in 5.0 mi SE 12.7 mph - N/A   Overcast
1:52 PM 36.0 °F 29.0 °F 34.0 °F 93% 29.75 in 5.0 mi SE 9.2 mph - 0.01 in   Overcast
2:52 PM 37.0 °F 31.0 °F 34.0 °F 89% 29.75 in 5.0 mi SE 8.1 mph - N/A   Overcast
3:52 PM 37.0 °F 30.4 °F 35.1 °F 93% 29.77 in 5.0 mi SE 9.2 mph - N/A   Overcast
4:52 PM 37.0 °F - 35.1 °F 93% 29.80 in 6.0 mi Calm Calm - N/A   Overcast
5:52 PM 37.9 °F 33.5 °F 35.1 °F 89% 29.85 in 7.0 mi NNW 5.8 mph - N/A   Overcast
6:33 PM 33.8 °F 23.5 °F 32.0 °F 93% 29.85 in 2.0 mi North 16.1 mph - N/A   Overcast
6:40 PM 32.0 °F 21.6 °F 30.2 °F 93% 29.85 in 1.5 mi North 15.0 mph - N/A   Overcast
6:52 PM 30.9 °F 20.2 °F 30.0 °F 96% 29.90 in 1.5 mi North 15.0 mph - N/A   Overcast
7:07 PM 30.2 °F 20.2 °F 28.4 °F 93% 29.88 in 3.0 mi North 12.7 mph - N/A   Overcast
7:52 PM 30.0 °F 19.5 °F 28.0 °F 92% 29.93 in 5.0 mi North 13.8 mph - N/A   Overcast
8:52 PM 28.9 °F 18.2 °F 27.0 °F 92% 29.96 in 5.0 mi North 13.8 mph - N/A   Overcast
9:52 PM 28.0 °F 16.1 °F 26.1 °F 92% 30.00 in 2.5 mi North 16.1 mph - N/A   Overcast
10:13 PM 26.6 °F 13.8 °F 26.6 °F 100% 29.97 in 1.2 mi North 17.3 mph - N/A   Overcast
10:34 PM 26.6 °F 14.3 °F 26.6 °F 100% 29.99 in 0.8 mi North 16.1 mph - N/A   Mist
10:52 PM 26.1 °F 12.3 °F 25.0 °F 96% 30.03 in 1.2 mi North 19.6 mph - N/A   Overcast
11:03 PM 26.6 °F 13.4 °F 24.8 °F 93% 30.00 in 3.0 mi North 18.4 mph - N/A   Overcast
11:36 PM 24.8 °F 12.4 °F 21.2 °F 86% 30.01 in 6.0 mi North 15.0 mph - N/A   Overcast
11:52 PM 24.1 °F 12.0 °F 21.0 °F 88% 30.05 in 7.0 mi North 13.8 mph - N/A   Overcast